UAL1944 KDEN-KABQ

Flight info

Callsign UAL1944
Flight time 0h 52m
Altitude 36000
Route SUDDZ1 SUDDZ DATME SNDIA4
Aircraft A320/M-SDE3FGHIRWY/LB1

Departure

Time 2026-05-01 09:15
Airport Denver International Airport (KDEN)

Arrival

Time 2026-05-01 10:07
Airport Albuquerque International Sunport (KABQ)
Time Latitude Longitude Altitude Speed Heading
2026-05-01 08:42 39.85810 -104.67962 5366 ft 0 kts 13°
2026-05-01 09:02 39.85808 -104.67962 5366 ft 2 kts 13°
2026-05-01 09:02 39.85783 -104.67969 5363 ft 4 kts 10°
2026-05-01 09:02 39.85761 -104.67974 5363 ft 2 kts 12°
2026-05-01 09:02 39.85741 -104.67986 5366 ft 4 kts 69°
2026-05-01 09:03 39.85738 -104.68016 5364 ft 3 kts 90°
2026-05-01 09:03 39.85738 -104.68021 5366 ft 0 kts 90°
2026-05-01 09:05 39.85737 -104.67994 5365 ft 6 kts 98°
2026-05-01 09:05 39.85702 -104.67930 5365 ft 11 kts 134°
2026-05-01 09:05 39.85668 -104.67837 5366 ft 14 kts 93°
2026-05-01 09:05 39.85666 -104.67692 5366 ft 17 kts 90°
2026-05-01 09:06 39.85665 -104.67533 5366 ft 18 kts 90°
2026-05-01 09:06 39.85664 -104.67361 5366 ft 20 kts 91°
2026-05-01 09:06 39.85662 -104.67176 5365 ft 21 kts 90°
2026-05-01 09:06 39.85661 -104.66980 5366 ft 22 kts 90°
2026-05-01 09:07 39.85660 -104.66775 5366 ft 24 kts 90°
2026-05-01 09:07 39.85659 -104.66601 5366 ft 16 kts 90°
2026-05-01 09:07 39.85679 -104.66508 5365 ft 10 kts 74°
2026-05-01 09:07 39.85679 -104.66412 5366 ft 11 kts 90°
2026-05-01 09:08 39.85679 -104.66304 5364 ft 13 kts 90°
2026-05-01 09:08 39.85729 -104.66232 5365 ft 13 kts
2026-05-01 09:08 39.85825 -104.66232 5365 ft 14 kts 360°
2026-05-01 09:08 39.85931 -104.66231 5364 ft 16 kts
2026-05-01 09:09 39.85994 -104.66231 5365 ft 5 kts
2026-05-01 09:09 39.86019 -104.66209 5365 ft 5 kts 70°
2026-05-01 09:09 39.86018 -104.66170 5366 ft 0 kts 94°
2026-05-01 09:13 39.86018 -104.66162 5366 ft 4 kts 93°
2026-05-01 09:13 39.86018 -104.66096 5366 ft 10 kts 90°
2026-05-01 09:13 39.85974 -104.66017 5364 ft 13 kts 169°
2026-05-01 09:14 39.85862 -104.66016 5364 ft 25 kts 180°
2026-05-01 09:14 39.85446 -104.66022 5364 ft 94 kts 180°
2026-05-01 09:14 39.84598 -104.66032 5365 ft 147 kts 180°
2026-05-01 09:14 39.83446 -104.66039 5621 ft 169 kts 182°
2026-05-01 09:15 39.82278 -104.66049 6470 ft 168 kts 183°
2026-05-01 09:15 39.81111 -104.66063 7114 ft 168 kts 183°
2026-05-01 09:15 39.79888 -104.66080 7372 ft 186 kts 183°
2026-05-01 09:15 39.78516 -104.66098 7568 ft 209 kts 182°
2026-05-01 09:16 39.76982 -104.66119 7759 ft 233 kts 181°
2026-05-01 09:16 39.75279 -104.66144 8070 ft 256 kts 181°
2026-05-01 09:16 39.73417 -104.66169 8488 ft 277 kts 181°
2026-05-01 09:17 39.69461 -104.66215 9821 ft 292 kts 179°
2026-05-01 09:17 39.67423 -104.66237 9974 ft 297 kts 179°
2026-05-01 09:17 39.62907 -104.66736 10225 ft 349 kts 191°
2026-05-01 09:18 39.60501 -104.67402 10802 ft 356 kts 191°
2026-05-01 09:18 39.55591 -104.68748 12129 ft 364 kts 193°
2026-05-01 09:19 39.50650 -104.70169 13570 ft 368 kts 195°
2026-05-01 09:19 39.48169 -104.71023 14266 ft 370 kts 197°
2026-05-01 09:19 39.45681 -104.71942 14857 ft 373 kts 198°
2026-05-01 09:20 39.40650 -104.73842 16015 ft 380 kts 198°
2026-05-01 09:20 39.35507 -104.75722 17203 ft 387 kts 197°
2026-05-01 09:21 39.30261 -104.77592 18402 ft 395 kts 197°
2026-05-01 09:21 39.27600 -104.78534 18944 ft 398 kts 197°
2026-05-01 09:21 39.22226 -104.80445 20129 ft 403 kts 198°
2026-05-01 09:22 39.16798 -104.82372 21262 ft 406 kts 198°
2026-05-01 09:22 39.11307 -104.84233 22299 ft 410 kts 197°
2026-05-01 09:23 39.08549 -104.85200 22801 ft 411 kts 199°
2026-05-01 09:23 39.03057 -104.87317 23809 ft 413 kts 200°
2026-05-01 09:24 38.97545 -104.89526 24562 ft 416 kts 201°
2026-05-01 09:24 38.94813 -104.90614 24905 ft 418 kts 201°
2026-05-01 09:24 38.89223 -104.92796 25560 ft 423 kts 201°
2026-05-01 09:25 38.83542 -104.94985 26139 ft 429 kts 201°
2026-05-01 09:25 38.77815 -104.97185 26875 ft 431 kts 202°
2026-05-01 09:26 38.74939 -104.98294 27205 ft 433 kts 202°
2026-05-01 09:26 38.69144 -105.00532 27895 ft 437 kts 202°
2026-05-01 09:26 38.66226 -105.01654 28228 ft 439 kts 202°
2026-05-01 09:27 38.63585 -105.02665 28582 ft 439 kts 203°
2026-05-01 09:27 38.62597 -105.03043 28738 ft 438 kts 203°
2026-05-01 09:27 38.61039 -105.03638 28996 ft 438 kts 203°
2026-05-01 09:28 38.58132 -105.04749 29430 ft 436 kts 204°
2026-05-01 09:28 38.55224 -105.05861 29858 ft 436 kts 204°
2026-05-01 09:28 38.52322 -105.06967 30310 ft 435 kts 204°
2026-05-01 09:28 38.49425 -105.08072 30707 ft 434 kts 204°
2026-05-01 09:29 38.43672 -105.10265 31602 ft 429 kts 205°
2026-05-01 09:29 38.40822 -105.11357 32052 ft 427 kts 205°
2026-05-01 09:30 38.35169 -105.13518 32971 ft 422 kts 204°
2026-05-01 09:30 38.32367 -105.14583 33487 ft 418 kts 204°
2026-05-01 09:30 38.27765 -105.16328 34314 ft 413 kts 204°
2026-05-01 09:31 38.25021 -105.17368 34686 ft 411 kts 204°
2026-05-01 09:31 38.22283 -105.18409 34990 ft 411 kts 204°
2026-05-01 09:31 38.15904 -105.20827 35634 ft 412 kts 204°
2026-05-01 09:32 38.13155 -105.21867 35912 ft 413 kts 204°
2026-05-01 09:32 38.08544 -105.23613 36188 ft 414 kts 204°
2026-05-01 09:32 38.05800 -105.24655 36212 ft 419 kts 204°
2026-05-01 09:33 38.00192 -105.26768 36194 ft 421 kts 204°
2026-05-01 09:34 37.91755 -105.29936 36173 ft 422 kts 204°
2026-05-01 09:34 37.83948 -105.34558 36175 ft 412 kts 214°
2026-05-01 09:35 37.76337 -105.39633 36130 ft 413 kts 214°
2026-05-01 09:36 37.71259 -105.43023 36120 ft 413 kts 214°
2026-05-01 09:36 37.66160 -105.46408 36121 ft 413 kts 214°
2026-05-01 09:37 37.61071 -105.49778 36083 ft 413 kts 214°
2026-05-01 09:37 37.53431 -105.54834 36100 ft 415 kts 214°
2026-05-01 09:38 37.45774 -105.59879 36129 ft 416 kts 214°
2026-05-01 09:39 37.38072 -105.64946 36137 ft 416 kts 214°
2026-05-01 09:39 37.32939 -105.68324 36146 ft 416 kts 214°
2026-05-01 09:40 37.25249 -105.73380 36040 ft 416 kts 214°
2026-05-01 09:41 37.20118 -105.76730 36033 ft 415 kts 214°
2026-05-01 09:41 37.12449 -105.81735 36035 ft 416 kts 214°
2026-05-01 09:42 37.07318 -105.85087 36018 ft 416 kts 214°
2026-05-01 09:43 36.97035 -105.91776 36019 ft 417 kts 214°
2026-05-01 09:43 36.91885 -105.95118 36023 ft 417 kts 214°
2026-05-01 09:44 36.84158 -106.00129 35967 ft 418 kts 213°
2026-05-01 09:45 36.78987 -106.03471 35973 ft 420 kts 213°
2026-05-01 09:45 36.71223 -106.08483 35994 ft 422 kts 213°
2026-05-01 09:46 36.65972 -106.11769 35991 ft 426 kts 207°
2026-05-01 09:46 36.60375 -106.14293 35970 ft 428 kts 206°
2026-05-01 09:47 36.54754 -106.16784 35981 ft 429 kts 206°
2026-05-01 09:47 36.49140 -106.19284 35969 ft 429 kts 206°
2026-05-01 09:48 36.43516 -106.21786 35981 ft 429 kts 206°
2026-05-01 09:48 36.37889 -106.24286 35978 ft 429 kts 206°
2026-05-01 09:49 36.32272 -106.26773 35969 ft 428 kts 205°
2026-05-01 09:49 36.29471 -106.28010 35779 ft 425 kts 205°
2026-05-01 09:49 36.26679 -106.29241 34430 ft 429 kts 205°
2026-05-01 09:50 36.23841 -106.30498 32741 ft 437 kts 205°
2026-05-01 09:50 36.20954 -106.31776 31046 ft 443 kts 204°
2026-05-01 09:50 36.18029 -106.33066 29408 ft 453 kts 204°
2026-05-01 09:50 36.15062 -106.34366 28573 ft 448 kts 203°
2026-05-01 09:51 36.12126 -106.35646 27532 ft 448 kts 203°
2026-05-01 09:51 36.09185 -106.36925 26549 ft 448 kts 202°
2026-05-01 09:51 36.06281 -106.38179 25992 ft 438 kts 202°
2026-05-01 09:51 36.03450 -106.39396 25313 ft 432 kts 202°
2026-05-01 09:52 36.00633 -106.40602 24855 ft 423 kts 202°
2026-05-01 09:52 35.97912 -106.41764 24738 ft 405 kts 202°
2026-05-01 09:52 35.95298 -106.42880 24623 ft 390 kts 202°
2026-05-01 09:52 35.92776 -106.43959 24502 ft 377 kts 202°
2026-05-01 09:53 35.90323 -106.45014 24251 ft 370 kts 202°
2026-05-01 09:53 35.87884 -106.46045 23809 ft 370 kts 202°
2026-05-01 09:53 35.85458 -106.47044 23247 ft 363 kts 202°
2026-05-01 09:53 35.83069 -106.48017 22416 ft 361 kts 201°
2026-05-01 09:54 35.80673 -106.48990 21851 ft 363 kts 200°
2026-05-01 09:54 35.78276 -106.49965 21307 ft 363 kts 201°
2026-05-01 09:54 35.75877 -106.50941 20765 ft 363 kts 201°
2026-05-01 09:54 35.73480 -106.51916 20280 ft 362 kts 201°
2026-05-01 09:55 35.71093 -106.52883 19710 ft 362 kts 201°
2026-05-01 09:55 35.68717 -106.53846 19345 ft 357 kts 201°
2026-05-01 09:55 35.66362 -106.54802 18877 ft 355 kts 201°
2026-05-01 09:55 35.64021 -106.55753 18413 ft 354 kts 201°
2026-05-01 09:56 35.61686 -106.56703 17914 ft 352 kts 201°
2026-05-01 09:56 35.59371 -106.57661 17422 ft 349 kts 204°
2026-05-01 09:56 35.57157 -106.58842 16929 ft 346 kts 206°
2026-05-01 09:56 35.54964 -106.60035 16449 ft 344 kts 207°
2026-05-01 09:57 35.52786 -106.61212 15922 ft 338 kts 205°
2026-05-01 09:57 35.50691 -106.62334 15657 ft 321 kts 206°
2026-05-01 09:57 35.48667 -106.63414 15181 ft 314 kts 207°
2026-05-01 09:57 35.46684 -106.64474 14732 ft 308 kts 206°
2026-05-01 09:58 35.44725 -106.65526 14315 ft 306 kts 207°
2026-05-01 09:58 35.42777 -106.66576 13890 ft 307 kts 206°
2026-05-01 09:58 35.40815 -106.67632 13455 ft 307 kts 205°
2026-05-01 09:58 35.38866 -106.68678 13113 ft 304 kts 206°
2026-05-01 09:59 35.36923 -106.69723 12641 ft 305 kts 205°
2026-05-01 09:59 35.34991 -106.70764 12252 ft 304 kts 206°
2026-05-01 09:59 35.33058 -106.71804 11912 ft 302 kts 205°
2026-05-01 09:59 35.31167 -106.72822 11495 ft 298 kts 205°
2026-05-01 10:00 35.29283 -106.73834 10946 ft 293 kts 205°
2026-05-01 10:00 35.27443 -106.74868 10536 ft 292 kts 206°
2026-05-01 10:00 35.25616 -106.75977 10153 ft 292 kts 207°
2026-05-01 10:00 35.23813 -106.77107 9832 ft 289 kts 207°
2026-05-01 10:01 35.22042 -106.78221 9820 ft 286 kts 206°
2026-05-01 10:01 35.20308 -106.79307 9819 ft 274 kts 206°
2026-05-01 10:01 35.18679 -106.80317 9816 ft 251 kts 206°
2026-05-01 10:01 35.17167 -106.81248 9817 ft 239 kts 206°
2026-05-01 10:02 35.15637 -106.81985 9823 ft 238 kts 190°
2026-05-01 10:02 35.13983 -106.82036 9154 ft 241 kts 168°
2026-05-01 10:02 35.12402 -106.81441 8751 ft 234 kts 160°
2026-05-01 10:02 35.10864 -106.80798 8517 ft 233 kts 160°
2026-05-01 10:03 35.09328 -106.80169 8320 ft 233 kts 159°
2026-05-01 10:03 35.07800 -106.79517 8124 ft 231 kts 153°
2026-05-01 10:03 35.06545 -106.78356 7929 ft 228 kts 127°
2026-05-01 10:03 35.05728 -106.76716 7662 ft 226 kts 117°
2026-05-01 10:04 35.04977 -106.75051 7391 ft 221 kts 117°
2026-05-01 10:04 35.04505 -106.73357 7237 ft 205 kts 92°
2026-05-01 10:04 35.04477 -106.71640 7057 ft 200 kts 89°
2026-05-01 10:04 35.04474 -106.69974 6787 ft 192 kts 89°
2026-05-01 10:05 35.04468 -106.68416 6559 ft 176 kts 91°
2026-05-01 10:05 35.04461 -106.67004 6347 ft 154 kts 90°
2026-05-01 10:05 35.04454 -106.65764 6110 ft 140 kts 90°
2026-05-01 10:05 35.04448 -106.64600 5896 ft 137 kts 90°
2026-05-01 10:06 35.04441 -106.63459 5652 ft 133 kts 90°
2026-05-01 10:06 35.04439 -106.62319 5441 ft 134 kts 90°
2026-05-01 10:06 35.04432 -106.61214 5322 ft 120 kts 90°
2026-05-01 10:06 35.04427 -106.60402 5323 ft 71 kts 91°
2026-05-01 10:07 35.04423 -106.60010 5321 ft 27 kts 90°
2026-05-01 10:07 35.04446 -106.59808 5317 ft 22 kts 70°
2026-05-01 10:07 35.04499 -106.59673 5315 ft 9 kts 60°
2026-05-01 10:07 35.04539 -106.59626 5318 ft 8 kts 18°
2026-05-01 10:08 35.04586 -106.59712 5318 ft 8 kts 271°
2026-05-01 10:08 35.04586 -106.59781 5321 ft 9 kts 269°
2026-05-01 10:08 35.04584 -106.59860 5312 ft 10 kts 264°
2026-05-01 10:09 35.04575 -106.59948 5321 ft 11 kts 265°
2026-05-01 10:09 35.04574 -106.60049 5321 ft 12 kts 270°
2026-05-01 10:09 35.04574 -106.60153 5316 ft 13 kts 270°
2026-05-01 10:09 35.04574 -106.60264 5321 ft 14 kts 271°
2026-05-01 10:10 35.04576 -106.60384 5321 ft 14 kts 270°
2026-05-01 10:10 35.04576 -106.60510 5321 ft 15 kts 270°
2026-05-01 10:10 35.04578 -106.60753 5321 ft 14 kts 271°
2026-05-01 10:11 35.04579 -106.60877 5321 ft 15 kts 270°
2026-05-01 10:11 35.04579 -106.61002 5315 ft 14 kts 271°
2026-05-01 10:11 35.04580 -106.61124 5313 ft 14 kts 270°
2026-05-01 10:11 35.04581 -106.61246 5319 ft 14 kts 270°
2026-05-01 10:12 35.04578 -106.61326 5317 ft 9 kts 256°
2026-05-01 10:12 35.04569 -106.61374 5317 ft 8 kts 261°
2026-05-01 10:12 35.04654 -106.61433 5317 ft 4 kts 342°
2026-05-01 10:13 35.04674 -106.61441 5316 ft 1 kts 342°
2026-05-01 10:13 35.04681 -106.61444 5317 ft 2 kts 343°
2026-05-01 10:13 35.04691 -106.61447 5316 ft 1 kts 342°
2026-05-01 10:14 35.04699 -106.61451 5318 ft 0 kts 342°